Location: Zagreb
(45.8000°N, 16.0000°E)
Time: 03:05:50
(UTC+01:00)

X-37B - Visible Passes

Search period start: 21 January 2022 00:00
Search period end: 31 January 2022 00:00
Orbit: 334 x 337 km, 45.0° (Epoch: 11 January)

Date Brightness Start Highest point End Pass type
(mag) Time Alt. Az. Time Alt. Az. Time Alt. Az.
26 Jan 2.8 18:18:57 10° S 18:20:01 12° SSE 18:20:01 12° SSE visible
27 Jan 2.1 18:37:55 10° SSW 18:39:47 23° S 18:39:47 23° S visible
28 Jan 2.2 18:57:52 10° WSW 18:59:29 28° SW 18:59:29 28° SW visible
29 Jan 1.9 17:43:22 10° SSW 17:45:45 24° SSE 17:47:54 11° E visible
29 Jan 3.1 19:18:09 10° WSW 19:19:08 19° WSW 19:19:08 19° WSW visible
30 Jan 0.9 18:03:18 10° WSW 18:06:01 44° SSE 18:07:32 22° E visible
30 Jan 4.0 19:38:33 10° W 19:38:45 11° W 19:38:45 11° W visible
